Hourly Weather Roundup
Issued by NWS Central Illinois

Home | Current Version | Previous Version | Text Only | Print | Product List | Glossary On
Versions: 1 2 3 4 5 6 7 8 9 10 11 12 13 14 15 16 17 18 19 20 21 22 23 24 25 26 27 28 29 30 31 32 33 34 35 36 37 38 39 40 41 42 43 44 45 46 47 48 49 50
000
NZUS43 KILX 300110
HWRILX

AREA WEATHER ROUNDUP
NATIONAL WEATHER SERVICE, LINCOLN IL
800 PM CDT FRI JUL 29 2016


CITY           SKY/WX    TMP DP  RH WIND       PRES   REMARKS
BLOOMINGTON    MOCLDY    77  68  73 W8        29.94R
CHAMPAIGN      CLEAR     75  69  81 W6        29.92R
DANVILLE       CLEAR     74  70  88 NW3       29.89R
DECATUR        CLEAR     78  66  66 NW8       29.93R HX  80
EFFINGHAM      PTCLDY    77  71  80 W3        29.93S
FLORA          CLOUDY    79  72  80 CALM      29.92S HX  82
GALESBURG      CLOUDY    74  68  80 N7        29.94R
JACKSONVILLE   CLEAR     75  68  78 NW3       29.93S
LACON          PTCLDY    69  67  94 CALM      29.92F
LAWRENCEVILLE  CLOUDY    78  74  87 W6          N/A  HX  81
LITCHFIELD       N/A    N/A N/A N/A MISG        N/A
$$


CITY           SKY/WX    TMP DP  RH WIND       PRES   REMARKS
LINCOLN        CLEAR     76  69  77 NW3       29.93R
MACOMB         CLEAR     72  67  82 W5        29.96S
MATTOON        CLEAR     77  67  71 CALM      29.91R
MT CARMEL AP   CLOUDY    77  74  89 CALM      29.90S
OLNEY-NOBLE AP PTCLDY    77  72  83 NW3       29.92S
PARIS          CLEAR     76  71  86 CALM      29.92R
PEORIA         CLEAR     76  67  73 W6        29.93R
PONTIAC        CLOUDY    73  72  94 N7        29.93S
RANTOUL        NOT AVBL
ROBINSON       PTCLDY    75  69  84 NW5       29.91R
SPRINGFIELD    CLEAR     78  68  71 NW3       29.93R HX  80
TAYLORVILLE    CLEAR     74  68  82 MISG      29.93R
$$

...REGIONAL REPORTS...


CITY           SKY/WX    TMP DP  RH WIND       PRES   REMARKS
CHICAGO O`HARE CLOUDY    72  67  84 N10       29.93S
KANKAKEE       CLEAR     71  68  90 NE6       29.93R
MOLINE         MOCLDY    73  66  78 E9        29.93R
MOUNT STERLING CLEAR     73  65  76 NW3       29.94R
MOUNT VERNON   MOCLDY    77  70  78 CALM      29.92F
PITTSFIELD     MOCLDY    77  68  74 N5        29.95R
QUINCY         CLEAR     75  67  76 NW6       29.94S
ROCKFORD       CLOUDY    70  67  90 NE9       29.98R
$$


CITY           SKY/WX    TMP DP  RH WIND       PRES   REMARKS
BURLINGTON     PTCLDY    73  67  81 NW5       29.94R
CEDAR RAPIDS   CLOUDY    69  68  96 N8        29.97R
DES MOINES     MOCLDY    71  64  78 N5        29.99S
KIRKSVILLE     PTCLDY    74  63  68 N6        29.96S
OTTUMWA        PTCLDY    68  65  90 N9        29.97S
ST LOUIS       MOCLDY    82  66  58 N8        29.92S HX  84
$$


CITY           SKY/WX    TMP DP  RH WIND       PRES   REMARKS
TERRE HAUTE    PTCLDY    77  69  76 CALM      29.91R
EVANSVILLE     MOCLDY    76  72  87 CALM      29.92R
INDIANAPOLIS   MOCLDY    76  68  76 N7        29.92R
LAFAYETTE      CLOUDY    73  69  87 NE8       29.91R
MADISON        MOCLDY    71  64  78 NE7       29.99R
MILWAUKEE      CLOUDY    70  65  84 NE12      29.99R
$$






USA.gov is the U.S. government's official web portal to all federal, state and local government web resources and services.